Time,TemperatureF,DewpointF,PressureIn,WindDirection,WindDirectionDegrees,WindSpeedMPH,WindSpeedGustMPH,Humidity,HourlyPrecipIn,Conditions,Clouds,dailyrainin,SoftwareType,DateUTC
2013-02-25 00:00:00,31.0,28.7,30.06,NNW,346,0.0,0.0,91,0.00,,OVC055,0.00,VWS V14.01,2013-02-25 05:00:00,
2013-02-25 00:05:00,30.9,28.9,30.06,NNW,346,0.0,0.0,92,0.00,,OVC055,0.00,VWS V14.01,2013-02-25 05:05:00,
2013-02-25 00:10:00,30.7,28.9,30.06,NNW,346,0.0,0.0,93,0.00,,OVC055,0.00,VWS V14.01,2013-02-25 05:10:00,
2013-02-25 00:15:00,30.6,28.8,30.06,NNW,346,0.0,0.0,93,0.00,,OVC055,0.00,VWS V14.01,2013-02-25 05:15:00,
2013-02-25 00:20:00,30.4,28.9,30.06,NNW,346,0.0,0.0,94,0.00,,OVC055,0.00,VWS V14.01,2013-02-25 05:20:00,
2013-02-25 00:25:00,30.3,28.8,30.06,NNW,346,0.0,0.0,94,0.00,,OVC055,0.00,VWS V14.01,2013-02-25 05:25:00,
2013-02-25 00:30:00,30.2,28.7,30.06,NNW,346,0.0,0.0,94,0.00,,OVC055,0.00,VWS V14.01,2013-02-25 05:30:00,
2013-02-25 00:35:00,30.1,28.8,30.05,NNW,346,0.0,0.0,95,0.00,,OVC055,0.00,VWS V14.01,2013-02-25 05:35:00,
2013-02-25 00:40:00,29.9,28.6,30.05,NNW,346,0.0,0.0,95,0.00,,OVC055,0.00,VWS V14.01,2013-02-25 05:40:00,
2013-02-25 00:45:00,29.8,28.5,30.05,NNW,346,0.0,0.0,95,0.00,,OVC055,0.00,VWS V14.01,2013-02-25 05:45:00,
2013-02-25 00:50:00,29.7,28.5,30.06,NNW,346,0.0,0.0,95,0.00,,OVC055,0.00,VWS V14.01,2013-02-25 05:50:00,
2013-02-25 00:55:00,29.7,28.5,30.06,NNW,346,0.0,0.0,95,0.00,,OVC055,0.00,VWS V14.01,2013-02-25 05:55:00,
2013-02-25 01:00:00,29.6,28.6,30.07,NNW,346,0.0,0.0,96,0.00,,OVC055,0.00,VWS V14.01,2013-02-25 06:00:00,
2013-02-25 01:05:00,29.5,28.2,30.07,NNW,346,0.0,0.0,95,0.00,,OVC055,0.00,VWS V14.01,2013-02-25 06:05:00,
2013-02-25 01:10:00,29.4,28.4,30.07,NNW,346,0.0,0.0,96,0.00,,OVC055,0.00,VWS V14.01,2013-02-25 06:10:00,
2013-02-25 01:15:00,29.4,28.4,30.06,NNW,346,0.0,0.0,96,0.00,,OVC055,0.00,VWS V14.01,2013-02-25 06:15:00,
2013-02-25 01:20:00,29.3,28.3,30.07,NNW,346,0.0,0.0,96,0.00,,OVC055,0.00,VWS V14.01,2013-02-25 06:20:00,
2013-02-25 01:25:00,29.3,28.3,30.07,NNW,346,0.0,0.0,96,0.00,,OVC055,0.00,VWS V14.01,2013-02-25 06:25:00,
2013-02-25 01:30:00,29.4,28.7,30.06,NNW,346,0.0,0.0,97,0.00,,OVC055,0.00,VWS V14.01,2013-02-25 06:30:00,
2013-02-25 01:35:00,29.4,28.7,30.06,NNW,346,0.0,0.0,97,0.00,,OVC055,0.00,VWS V14.01,2013-02-25 06:35:00,
2013-02-25 01:40:00,29.3,28.6,30.07,NNW,346,0.0,0.0,97,0.00,,OVC055,0.00,VWS V14.01,2013-02-25 06:40:00,
2013-02-25 01:45:00,29.3,28.6,30.06,NNW,346,0.0,0.0,97,0.00,,OVC055,0.00,VWS V14.01,2013-02-25 06:45:00,
2013-02-25 01:50:00,29.3,28.6,30.07,NNW,346,0.0,0.0,97,0.00,,OVC055,0.00,VWS V14.01,2013-02-25 06:50:00,
2013-02-25 01:55:00,29.2,28.5,30.06,NNW,346,0.0,0.0,97,0.00,,OVC055,0.00,VWS V14.01,2013-02-25 06:55:00,
2013-02-25 02:00:00,29.1,28.4,30.06,NNW,346,0.0,0.0,97,0.00,,OVC055,0.00,VWS V14.01,2013-02-25 07:00:00,
2013-02-25 02:05:00,29.0,28.3,30.06,NNW,346,0.0,0.0,97,0.00,,OVC055,0.00,VWS V14.01,2013-02-25 07:05:00,
2013-02-25 02:10:00,28.9,28.2,30.05,NNW,346,0.0,0.0,97,0.00,,OVC055,0.00,VWS V14.01,2013-02-25 07:10:00,
2013-02-25 02:15:00,29.0,28.3,30.06,NNW,346,0.0,1.0,97,0.00,,OVC055,0.00,VWS V14.01,2013-02-25 07:15:00,
2013-02-25 02:20:00,29.1,28.4,30.06,NNW,346,0.0,1.0,97,0.00,,OVC055,0.00,VWS V14.01,2013-02-25 07:20:00,
2013-02-25 02:25:00,29.2,28.5,30.06,NNW,346,0.0,1.0,97,0.00,,OVC055,0.00,VWS V14.01,2013-02-25 07:25:00,
2013-02-25 02:30:00,29.3,28.6,30.07,NNW,346,0.0,0.0,97,0.00,,OVC055,0.00,VWS V14.01,2013-02-25 07:30:00,
2013-02-25 02:35:00,29.3,28.6,30.07,NNW,346,0.0,0.0,97,0.00,,OVC055,0.00,VWS V14.01,2013-02-25 07:35:00,
2013-02-25 02:40:00,29.3,28.6,30.07,NNW,346,0.0,0.0,97,0.00,,OVC055,0.00,VWS V14.01,2013-02-25 07:40:00,
2013-02-25 02:45:00,29.3,28.6,30.07,NNW,346,0.0,0.0,97,0.00,,OVC055,0.00,VWS V14.01,2013-02-25 07:45:00,
2013-02-25 02:50:00,29.3,28.6,30.07,NNW,346,0.0,0.0,97,0.00,,OVC055,0.00,VWS V14.01,2013-02-25 07:50:00,
2013-02-25 02:55:00,29.2,28.5,30.07,NNW,346,0.0,0.0,97,0.00,,OVC055,0.00,VWS V14.01,2013-02-25 07:55:00,
2013-02-25 03:00:00,29.3,28.6,30.07,NNW,346,0.0,0.0,97,0.00,,OVC055,0.00,VWS V14.01,2013-02-25 08:00:00,
2013-02-25 03:05:00,29.3,28.6,30.07,NNW,346,0.0,0.0,97,0.00,,OVC055,0.00,VWS V14.01,2013-02-25 08:05:00,
2013-02-25 03:10:00,29.3,28.6,30.06,NNW,346,0.0,0.0,97,0.00,,OVC055,0.00,VWS V14.01,2013-02-25 08:10:00,
2013-02-25 03:14:00,29.4,28.7,30.06,NNW,346,0.0,0.0,97,0.00,,OVC055,0.00,VWS V14.01,2013-02-25 08:14:00,
2013-02-25 03:19:00,29.4,28.7,30.06,NNW,346,0.0,0.0,97,0.00,,OVC055,0.00,VWS V14.01,2013-02-25 08:19:00,
2013-02-25 03:24:00,29.4,28.7,30.05,NNW,346,0.0,0.0,97,0.00,,OVC055,0.00,VWS V14.01,2013-02-25 08:24:00,
2013-02-25 03:29:00,29.4,28.7,30.05,NNW,346,0.0,0.0,97,0.00,,OVC055,0.00,VWS V14.01,2013-02-25 08:29:00,
2013-02-25 03:30:00,29.4,28.7,30.05,NNW,346,0.0,0.0,97,0.00,,OVC055,0.00,VWS V14.01,2013-02-25 08:30:00,
2013-02-25 03:34:00,29.4,28.7,30.05,NNW,346,0.0,0.0,97,0.00,,OVC055,0.00,VWS V14.01,2013-02-25 08:34:00,
2013-02-25 03:39:00,29.4,28.7,30.05,NNW,346,0.0,0.0,97,0.00,,OVC055,0.00,VWS V14.01,2013-02-25 08:39:00,
2013-02-25 03:44:00,29.4,28.7,30.06,NNW,346,0.0,0.0,97,0.00,,OVC055,0.00,VWS V14.01,2013-02-25 08:44:00,
2013-02-25 03:49:00,29.4,28.7,30.06,NNW,346,0.0,0.0,97,0.00,,OVC055,0.00,VWS V14.01,2013-02-25 08:49:00,
2013-02-25 03:54:00,29.4,28.7,30.06,NNW,346,0.0,0.0,97,0.00,,OVC055,0.00,VWS V14.01,2013-02-25 08:54:00,
2013-02-25 03:59:00,29.4,28.7,30.06,NNW,346,0.0,0.0,97,0.00,,OVC055,0.00,VWS V14.01,2013-02-25 08:59:00,
2013-02-25 04:00:00,29.5,28.8,30.06,NNW,346,0.0,0.0,97,0.00,,OVC055,0.00,VWS V14.01,2013-02-25 09:00:00,
2013-02-25 04:04:00,29.5,28.8,30.06,NNW,346,0.0,0.0,97,0.00,,OVC055,0.00,VWS V14.01,2013-02-25 09:04:00,
2013-02-25 04:09:00,29.5,28.8,30.06,NNW,346,0.0,0.0,97,0.00,,OVC055,0.00,VWS V14.01,2013-02-25 09:09:00,
2013-02-25 04:14:00,29.5,28.8,30.06,NNW,346,0.0,0.0,97,0.00,,OVC055,0.00,VWS V14.01,2013-02-25 09:14:00,
2013-02-25 04:19:00,29.5,28.8,30.06,NNW,346,0.0,0.0,97,0.00,,OVC055,0.00,VWS V14.01,2013-02-25 09:19:00,
2013-02-25 04:24:00,29.6,29.1,30.06,NNW,346,0.0,0.0,98,0.00,,OVC055,0.00,VWS V14.01,2013-02-25 09:24:00,
2013-02-25 04:29:00,29.6,29.1,30.07,NNW,346,0.0,0.0,98,0.00,,OVC055,0.00,VWS V14.01,2013-02-25 09:29:00,
2013-02-25 04:30:00,29.6,29.1,30.07,NNW,346,0.0,0.0,98,0.00,,OVC055,0.00,VWS V14.01,2013-02-25 09:30:00,
2013-02-25 04:34:00,29.6,28.9,30.07,NNW,346,0.0,0.0,97,0.00,,OVC055,0.00,VWS V14.01,2013-02-25 09:34:00,
2013-02-25 04:39:00,29.6,28.9,30.07,NNW,346,0.0,0.0,97,0.00,,OVC055,0.00,VWS V14.01,2013-02-25 09:39:00,
2013-02-25 04:44:00,29.6,28.9,30.06,NNW,346,0.0,0.0,97,0.00,,OVC055,0.00,VWS V14.01,2013-02-25 09:44:00,
2013-02-25 04:49:00,29.5,28.8,30.07,NNW,346,0.0,0.0,97,0.00,,OVC055,0.00,VWS V14.01,2013-02-25 09:49:00,
2013-02-25 04:54:00,29.6,28.9,30.08,NNW,346,0.0,0.0,97,0.00,,OVC055,0.00,VWS V14.01,2013-02-25 09:54:00,
2013-02-25 04:59:00,29.6,28.9,30.08,NNW,346,0.0,0.0,97,0.00,,OVC055,0.00,VWS V14.01,2013-02-25 09:59:00,
2013-02-25 05:00:00,29.6,28.9,30.08,NNW,346,0.0,0.0,97,0.00,,OVC055,0.00,VWS V14.01,2013-02-25 10:00:00,
2013-02-25 05:04:00,29.5,28.8,30.08,NNW,346,0.0,0.0,97,0.00,,OVC055,0.00,VWS V14.01,2013-02-25 10:04:00,
2013-02-25 05:09:00,29.5,29.0,30.08,NNW,346,0.0,0.0,98,0.00,,OVC055,0.00,VWS V14.01,2013-02-25 10:09:00,
2013-02-25 05:14:00,29.5,29.0,30.08,NNW,346,0.0,0.0,98,0.00,,OVC055,0.00,VWS V14.01,2013-02-25 10:14:00,
2013-02-25 05:19:00,29.6,29.1,30.08,NNW,346,0.0,0.0,98,0.00,,OVC055,0.00,VWS V14.01,2013-02-25 10:19:00,
2013-02-25 05:24:00,29.6,29.1,30.08,NNW,346,0.0,0.0,98,0.00,,OVC055,0.00,VWS V14.01,2013-02-25 10:24:00,
2013-02-25 05:29:00,29.6,29.1,30.08,NNW,346,0.0,0.0,98,0.00,,OVC055,0.00,VWS V14.01,2013-02-25 10:29:00,
2013-02-25 05:30:00,29.5,29.0,30.09,NNW,346,0.0,0.0,98,0.00,,OVC055,0.00,VWS V14.01,2013-02-25 10:30:00,
2013-02-25 05:34:00,29.5,29.0,30.08,NNW,346,0.0,0.0,98,0.00,,OVC055,0.00,VWS V14.01,2013-02-25 10:34:00,
2013-02-25 05:39:00,29.5,29.0,30.08,NNW,346,0.0,0.0,98,0.00,,OVC055,0.00,VWS V14.01,2013-02-25 10:39:00,
2013-02-25 05:44:00,29.6,29.1,30.08,NNW,346,0.0,0.0,98,0.00,,OVC055,0.00,VWS V14.01,2013-02-25 10:44:00,
2013-02-25 05:49:00,29.6,29.1,30.09,NNW,346,0.0,0.0,98,0.00,,OVC055,0.00,VWS V14.01,2013-02-25 10:49:00,
2013-02-25 05:54:00,29.6,29.1,30.09,NNW,346,0.0,0.0,98,0.00,,OVC055,0.00,VWS V14.01,2013-02-25 10:54:00,
2013-02-25 05:59:00,29.7,29.2,30.09,NNW,346,0.0,0.0,98,0.00,,OVC055,0.00,VWS V14.01,2013-02-25 10:59:00,
2013-02-25 06:00:00,29.7,29.2,30.10,NNW,346,0.0,1.0,98,0.00,,OVC055,0.00,VWS V14.01,2013-02-25 11:00:00,
2013-02-25 06:04:00,29.8,29.3,30.10,NNW,346,0.0,0.0,98,0.00,,OVC055,0.00,VWS V14.01,2013-02-25 11:04:00,
2013-02-25 06:09:00,29.9,29.4,30.10,NNW,346,0.0,0.0,98,0.00,,OVC055,0.00,VWS V14.01,2013-02-25 11:09:00,
2013-02-25 06:14:00,29.9,29.4,30.10,NNW,346,0.0,0.0,98,0.00,,OVC055,0.00,VWS V14.01,2013-02-25 11:14:00,
2013-02-25 06:19:00,30.0,29.5,30.10,NNW,346,0.0,0.0,98,0.00,,OVC055,0.00,VWS V14.01,2013-02-25 11:19:00,
2013-02-25 06:24:00,29.9,29.1,30.10,NNW,346,0.0,0.0,97,0.00,,OVC055,0.00,VWS V14.01,2013-02-25 11:24:00,
2013-02-25 06:29:00,29.9,29.1,30.10,NNW,346,0.0,0.0,97,0.00,,OVC055,0.00,VWS V14.01,2013-02-25 11:29:00,
2013-02-25 06:30:00,29.9,29.1,30.10,NNW,346,0.0,0.0,97,0.00,,OVC055,0.00,VWS V14.01,2013-02-25 11:30:00,
2013-02-25 06:34:00,29.9,29.1,30.11,NNW,346,0.0,0.0,97,0.00,,OVC055,0.00,VWS V14.01,2013-02-25 11:34:00,
2013-02-25 06:39:00,29.9,29.1,30.11,NNW,346,0.0,0.0,97,0.00,,OVC055,0.00,VWS V14.01,2013-02-25 11:39:00,
2013-02-25 06:44:00,29.8,29.0,30.11,NNW,346,0.0,0.0,97,0.00,,OVC055,0.00,VWS V14.01,2013-02-25 11:44:00,
2013-02-25 06:49:00,29.8,29.0,30.11,NNW,346,0.0,0.0,97,0.00,,OVC055,0.00,VWS V14.01,2013-02-25 11:49:00,
2013-02-25 06:54:00,29.8,29.0,30.11,NNW,346,0.0,0.0,97,0.00,,OVC055,0.00,VWS V14.01,2013-02-25 11:54:00,
2013-02-25 06:59:00,29.8,29.0,30.11,NNW,346,0.0,0.0,97,0.00,,OVC055,0.00,VWS V14.01,2013-02-25 11:59:00,
2013-02-25 07:00:00,29.8,29.0,30.11,NNW,346,0.0,0.0,97,0.00,,OVC055,0.00,VWS V14.01,2013-02-25 12:00:00,
2013-02-25 07:04:00,29.7,29.2,30.11,NNW,346,0.0,0.0,98,0.00,,OVC055,0.00,VWS V14.01,2013-02-25 12:04:00,
2013-02-25 07:09:00,29.7,29.2,30.11,NNW,346,0.0,0.0,98,0.00,,OVC055,0.00,VWS V14.01,2013-02-25 12:09:00,
2013-02-25 07:14:00,29.7,29.0,30.11,NNW,346,0.0,0.0,97,0.00,,OVC055,0.00,VWS V14.01,2013-02-25 12:14:00,
2013-02-25 07:19:00,29.7,29.0,30.12,NNW,346,0.0,0.0,97,0.00,,OVC055,0.00,VWS V14.01,2013-02-25 12:19:00,
2013-02-25 07:24:00,29.7,29.0,30.12,NNW,346,0.0,0.0,97,0.00,,OVC055,0.00,VWS V14.01,2013-02-25 12:24:00,
2013-02-25 07:29:00,29.8,29.3,30.12,NNW,346,0.0,0.0,98,0.00,,OVC055,0.00,VWS V14.01,2013-02-25 12:29:00,
2013-02-25 07:30:00,29.8,29.3,30.12,NNW,346,0.0,0.0,98,0.00,,OVC055,0.00,VWS V14.01,2013-02-25 12:30:00,
2013-02-25 07:34:00,29.9,29.4,30.12,NNW,346,0.0,0.0,98,0.00,,OVC055,0.00,VWS V14.01,2013-02-25 12:34:00,
2013-02-25 07:39:00,29.9,29.4,30.12,NNW,346,0.0,0.0,98,0.00,,OVC055,0.00,VWS V14.01,2013-02-25 12:39:00,
2013-02-25 07:44:00,30.0,29.5,30.12,NNW,346,0.0,0.0,98,0.00,,OVC055,0.00,VWS V14.01,2013-02-25 12:44:00,
2013-02-25 07:49:00,30.1,29.6,30.13,NNW,346,0.0,0.0,98,0.00,,OVC055,0.00,VWS V14.01,2013-02-25 12:49:00,
2013-02-25 07:54:00,30.3,29.8,30.13,NNW,346,0.0,0.0,98,0.00,,OVC055,0.00,VWS V14.01,2013-02-25 12:54:00,
2013-02-25 07:59:00,30.3,29.8,30.14,NNW,346,0.0,0.0,98,0.00,,OVC055,0.00,VWS V14.01,2013-02-25 12:59:00,
2013-02-25 08:00:00,30.3,29.8,30.14,NNW,346,0.0,0.0,98,0.00,,OVC055,0.00,VWS V14.01,2013-02-25 13:00:00,
2013-02-25 08:04:00,30.4,29.9,30.14,NNW,346,0.0,0.0,98,0.00,,OVC055,0.00,VWS V14.01,2013-02-25 13:04:00,
2013-02-25 08:09:00,30.6,30.1,30.14,NNW,346,0.0,0.0,98,0.00,,OVC055,0.00,VWS V14.01,2013-02-25 13:09:00,
2013-02-25 08:14:00,30.7,30.2,30.15,NNW,346,0.0,0.0,98,0.00,,OVC055,0.00,VWS V14.01,2013-02-25 13:14:00,
2013-02-25 08:19:00,30.9,30.4,30.15,NNW,346,0.0,0.0,98,0.00,,OVC055,0.00,VWS V14.01,2013-02-25 13:19:00,
2013-02-25 08:24:00,31.1,30.6,30.15,NNW,346,0.0,0.0,98,0.00,,OVC055,0.00,VWS V14.01,2013-02-25 13:24:00,
2013-02-25 08:29:00,31.2,30.7,30.15,NNW,346,0.0,2.0,98,0.00,,OVC055,0.00,VWS V14.01,2013-02-25 13:29:00,
2013-02-25 08:30:00,31.2,30.7,30.15,NNW,346,0.0,2.0,98,0.00,,OVC055,0.00,VWS V14.01,2013-02-25 13:30:00,
2013-02-25 08:34:00,31.4,30.9,30.15,NNW,346,0.0,1.0,98,0.00,,OVC055,0.00,VWS V14.01,2013-02-25 13:34:00,
2013-02-25 08:39:00,31.6,31.1,30.16,NNW,346,0.0,1.0,98,0.00,,OVC055,0.00,VWS V14.01,2013-02-25 13:39:00,
2013-02-25 08:44:00,31.7,31.0,30.17,NNW,346,0.0,1.0,97,0.00,,OVC055,0.00,VWS V14.01,2013-02-25 13:44:00,
2013-02-25 08:49:00,31.9,31.1,30.17,NNW,346,0.0,1.0,97,0.01,,OVC055,0.01,VWS V14.01,2013-02-25 13:49:00,
2013-02-25 08:54:00,32.1,31.4,30.18,NNW,346,0.0,1.0,97,0.01,,OVC055,0.01,VWS V14.01,2013-02-25 13:54:00,
2013-02-25 08:59:00,32.3,31.3,30.18,NNW,346,0.0,1.0,96,0.01,,OVC055,0.01,VWS V14.01,2013-02-25 13:59:00,
2013-02-25 09:00:00,32.3,31.3,30.18,NNW,346,0.0,1.0,96,0.01,,OVC055,0.01,VWS V14.01,2013-02-25 14:00:00,
2013-02-25 09:04:00,32.6,31.6,30.19,NNW,346,0.0,1.0,96,0.01,,OVC055,0.01,VWS V14.01,2013-02-25 14:04:00,
2013-02-25 09:09:00,32.8,31.8,30.19,NNW,346,0.0,1.0,96,0.01,,OVC055,0.01,VWS V14.01,2013-02-25 14:09:00,
2013-02-25 09:14:00,33.0,31.7,30.19,NNW,346,0.0,1.0,95,0.01,,OVC055,0.01,VWS V14.01,2013-02-25 14:14:00,
2013-02-25 09:19:00,33.2,32.2,30.18,NNW,346,0.0,1.0,96,0.01,,OVC055,0.01,VWS V14.01,2013-02-25 14:19:00,
2013-02-25 09:24:00,33.4,32.1,30.19,NNW,346,0.0,1.0,95,0.01,,OVC055,0.01,VWS V14.01,2013-02-25 14:24:00,
2013-02-25 09:29:00,33.7,32.4,30.19,NNW,346,0.0,0.0,95,0.01,,OVC055,0.01,VWS V14.01,2013-02-25 14:29:00,
2013-02-25 09:30:00,33.7,32.4,30.19,NNW,346,0.0,1.0,95,0.01,,OVC055,0.01,VWS V14.01,2013-02-25 14:30:00,
2013-02-25 09:34:00,34.0,32.7,30.18,NNW,346,0.0,3.0,95,0.01,,OVC055,0.01,VWS V14.01,2013-02-25 14:34:00,
2013-02-25 09:39:00,34.2,32.7,30.18,NNW,346,0.0,3.0,94,0.01,,OVC055,0.01,VWS V14.01,2013-02-25 14:39:00,
2013-02-25 09:44:00,34.5,33.0,30.18,NNW,346,0.0,3.0,94,0.01,,OVC055,0.01,VWS V14.01,2013-02-25 14:44:00,
2013-02-25 09:49:00,34.8,33.0,30.18,NNW,346,0.0,3.0,93,0.01,,OVC055,0.01,VWS V14.01,2013-02-25 14:49:00,
2013-02-25 09:54:00,35.2,33.1,30.18,North,5,1.0,3.0,92,0.01,,OVC055,0.01,VWS V14.01,2013-02-25 14:54:00,
2013-02-25 09:59:00,35.7,33.6,30.18,North,5,1.0,1.0,92,0.00,,OVC055,0.01,VWS V14.01,2013-02-25 14:59:00,
2013-02-25 10:00:00,35.7,33.6,30.18,North,5,1.0,3.0,92,0.01,,OVC055,0.01,VWS V14.01,2013-02-25 15:00:00,
2013-02-25 10:04:00,36.0,33.1,30.18,North,360,2.0,4.0,89,0.00,,OVC055,0.01,VWS V14.01,2013-02-25 15:04:00,
2013-02-25 10:09:00,36.6,31.9,30.18,NNE,26,3.0,6.0,83,0.00,,OVC055,0.01,VWS V14.01,2013-02-25 15:09:00,
2013-02-25 10:14:00,37.1,31.2,30.17,NNE,20,5.0,6.0,79,0.00,,OVC055,0.01,VWS V14.01,2013-02-25 15:14:00,
2013-02-25 10:19:00,37.5,31.6,30.17,North,355,4.0,7.0,79,0.00,,OVC055,0.01,VWS V14.01,2013-02-25 15:19:00,
2013-02-25 10:24:00,37.8,30.6,30.18,NNE,13,3.0,7.0,75,0.00,,OVC055,0.01,VWS V14.01,2013-02-25 15:24:00,
2013-02-25 10:29:00,38.0,30.5,30.18,NE,35,5.0,5.0,74,0.00,,OVC055,0.01,VWS V14.01,2013-02-25 15:29:00,
2013-02-25 10:30:00,38.0,30.5,30.18,NNE,20,4.0,7.0,74,0.00,,OVC055,0.01,VWS V14.01,2013-02-25 15:30:00,
2013-02-25 10:34:00,38.1,30.2,30.17,NE,38,5.0,8.0,73,0.00,,OVC055,0.01,VWS V14.01,2013-02-25 15:34:00,
2013-02-25 10:39:00,38.1,29.2,30.17,NE,53,6.0,8.0,70,0.00,,OVC055,0.01,VWS V14.01,2013-02-25 15:39:00,
2013-02-25 10:44:00,38.2,29.3,30.17,NNE,29,2.0,8.0,70,0.00,,OVC055,0.01,VWS V14.01,2013-02-25 15:44:00,
2013-02-25 10:49:00,38.4,29.1,30.17,NNE,29,5.0,8.0,69,0.00,,OVC055,0.01,VWS V14.01,2013-02-25 15:49:00,
2013-02-25 10:54:00,38.5,29.2,30.17,NNE,26,5.0,8.0,69,0.00,,OVC055,0.01,VWS V14.01,2013-02-25 15:54:00,
2013-02-25 10:59:00,38.7,29.1,30.17,NNE,22,6.0,6.0,68,0.00,,OVC055,0.01,VWS V14.01,2013-02-25 15:59:00,
2013-02-25 11:00:00,38.7,29.1,30.17,NNE,25,4.0,8.0,68,0.00,,OVC055,0.01,VWS V14.01,2013-02-25 16:00:00,
2013-02-25 11:04:00,38.9,28.9,30.16,NNE,24,3.0,7.0,67,0.00,,OVC055,0.01,VWS V14.01,2013-02-25 16:04:00,
2013-02-25 11:09:00,39.0,29.0,30.15,NE,43,4.0,8.0,67,0.00,,OVC055,0.01,VWS V14.01,2013-02-25 16:09:00,
2013-02-25 11:14:00,39.1,28.7,30.15,NNW,345,5.0,8.0,66,0.00,,OVC055,0.01,VWS V14.01,2013-02-25 16:14:00,
2013-02-25 11:19:00,39.3,28.5,30.15,NNE,13,4.0,9.0,65,0.00,,OVC055,0.01,VWS V14.01,2013-02-25 16:19:00,
2013-02-25 11:24:00,39.5,28.7,30.15,NE,34,5.0,9.0,65,0.00,,OVC055,0.01,VWS V14.01,2013-02-25 16:24:00,
2013-02-25 11:29:00,39.5,28.7,30.15,NE,52,4.0,7.0,65,0.00,,OVC055,0.01,VWS V14.01,2013-02-25 16:29:00,
2013-02-25 11:30:00,39.5,28.7,30.15,NE,42,7.0,10.0,65,0.00,,OVC055,0.01,VWS V14.01,2013-02-25 16:30:00,
2013-02-25 11:34:00,39.5,28.7,30.15,North,10,5.0,9.0,65,0.00,,OVC055,0.01,VWS V14.01,2013-02-25 16:34:00,
2013-02-25 11:39:00,39.5,28.7,30.15,NNE,14,4.0,9.0,65,0.00,,OVC055,0.01,VWS V14.01,2013-02-25 16:39:00,
2013-02-25 11:44:00,39.6,28.8,30.16,NE,44,3.0,9.0,65,0.00,,OVC055,0.01,VWS V14.01,2013-02-25 16:44:00,
2013-02-25 11:49:00,39.5,28.4,30.15,NNW,347,6.0,9.0,64,0.00,,OVC055,0.01,VWS V14.01,2013-02-25 16:49:00,
2013-02-25 11:54:00,39.6,28.4,30.14,NNE,22,4.0,9.0,64,0.00,,OVC055,0.01,VWS V14.01,2013-02-25 16:54:00,
2013-02-25 11:59:00,39.9,28.7,30.16,North,11,3.0,4.0,64,0.00,,OVC055,0.01,VWS V14.01,2013-02-25 16:59:00,
2013-02-25 12:00:00,39.9,28.7,30.15,North,355,4.0,9.0,64,0.00,,OVC055,0.01,VWS V14.01,2013-02-25 17:00:00,
2013-02-25 12:04:00,40.0,28.0,30.16,North,355,5.0,10.0,62,0.00,,OVC055,0.01,VWS V14.01,2013-02-25 17:04:00,
2013-02-25 12:09:00,40.0,28.4,30.15,NE,38,3.0,11.0,63,0.00,,OVC055,0.01,VWS V14.01,2013-02-25 17:09:00,
2013-02-25 12:14:00,40.1,28.5,30.15,NNE,19,7.0,11.0,63,0.00,,OVC055,0.01,VWS V14.01,2013-02-25 17:14:00,
2013-02-25 12:19:00,40.2,27.8,30.15,North,5,5.0,11.0,61,0.00,,OVC055,0.01,VWS V14.01,2013-02-25 17:19:00,
2013-02-25 12:24:00,40.5,28.5,30.15,North,360,6.0,11.0,62,0.00,,OVC055,0.01,VWS V14.01,2013-02-25 17:24:00,
2013-02-25 12:29:00,40.7,28.3,30.14,NNE,28,4.0,4.0,61,0.00,,OVC055,0.01,VWS V14.01,2013-02-25 17:29:00,
2013-02-25 12:30:00,40.7,28.3,30.15,NNE,17,4.0,11.0,61,0.00,,OVC055,0.01,VWS V14.01,2013-02-25 17:30:00,
2013-02-25 12:34:00,40.7,28.7,30.15,North,355,5.0,9.0,62,0.00,,OVC055,0.01,VWS V14.01,2013-02-25 17:34:00,
2013-02-25 12:39:00,40.9,28.5,30.13,North,360,6.0,9.0,61,0.00,,OVC055,0.01,VWS V14.01,2013-02-25 17:39:00,
2013-02-25 12:44:00,40.8,28.4,30.13,North,5,4.0,9.0,61,0.00,,OVC055,0.01,VWS V14.01,2013-02-25 17:44:00,
2013-02-25 12:49:00,40.9,28.1,30.13,NNE,14,5.0,9.0,60,0.00,,OVC055,0.01,VWS V14.01,2013-02-25 17:49:00,
2013-02-25 12:54:00,40.9,28.1,30.12,NE,39,5.0,9.0,60,0.00,,OVC055,0.01,VWS V14.01,2013-02-25 17:54:00,
2013-02-25 12:59:00,41.2,28.4,30.14,NE,38,4.0,6.0,60,0.00,,OVC055,0.01,VWS V14.01,2013-02-25 17:59:00,
2013-02-25 13:00:00,41.2,28.4,30.14,NNE,33,6.0,9.0,60,0.00,,OVC055,0.01,VWS V14.01,2013-02-25 18:00:00,
2013-02-25 13:04:00,41.2,28.4,30.14,NNE,18,3.0,9.0,60,0.00,,OVC055,0.01,VWS V14.01,2013-02-25 18:04:00,
2013-02-25 13:09:00,41.2,28.0,30.13,NE,34,2.0,9.0,59,0.00,,OVC055,0.01,VWS V14.01,2013-02-25 18:09:00,
2013-02-25 13:14:00,41.1,27.5,30.12,NE,42,1.0,9.0,58,0.00,,OVC055,0.01,VWS V14.01,2013-02-25 18:14:00,
2013-02-25 13:19:00,41.5,29.1,30.11,NNE,24,6.0,9.0,61,0.00,,OVC055,0.01,VWS V14.01,2013-02-25 18:19:00,
2013-02-25 13:24:00,41.7,28.4,30.11,NNE,12,8.0,9.0,59,0.00,,OVC055,0.01,VWS V14.01,2013-02-25 18:24:00,
2013-02-25 13:29:00,41.8,28.1,30.12,NE,49,6.0,9.0,58,0.00,,OVC055,0.01,VWS V14.01,2013-02-25 18:29:00,
2013-02-25 13:30:00,41.8,28.1,30.12,NE,49,6.0,9.0,58,0.00,,OVC055,0.01,VWS V14.01,2013-02-25 18:30:00,
2013-02-25 13:34:00,41.9,28.2,30.12,North,9,5.0,7.0,58,0.00,,OVC055,0.01,VWS V14.01,2013-02-25 18:34:00,
2013-02-25 13:39:00,42.2,28.1,30.12,North,349,8.0,8.0,57,0.00,,OVC055,0.01,VWS V14.01,2013-02-25 18:39:00,
2013-02-25 13:44:00,42.3,29.0,30.12,NNE,22,3.0,9.0,59,0.00,,OVC055,0.01,VWS V14.01,2013-02-25 18:44:00,
2013-02-25 13:49:00,42.3,28.2,30.12,North,355,6.0,9.0,57,0.00,,OVC055,0.01,VWS V14.01,2013-02-25 18:49:00,
2013-02-25 13:54:00,42.4,27.8,30.12,NNW,344,4.0,9.0,56,0.00,,OVC055,0.01,VWS V14.01,2013-02-25 18:54:00,
2013-02-25 13:59:00,42.5,28.4,30.11,North,360,6.0,10.0,57,0.00,,OVC055,0.01,VWS V14.01,2013-02-25 18:59:00,
2013-02-25 14:00:00,42.5,28.4,30.11,North,360,6.0,10.0,57,0.00,,OVC055,0.01,VWS V14.01,2013-02-25 19:00:00,
2013-02-25 14:04:00,42.6,28.9,30.12,NNE,19,3.0,8.0,58,0.00,,OVC055,0.01,VWS V14.01,2013-02-25 19:04:00,
2013-02-25 14:09:00,42.5,28.4,30.12,NNW,345,6.0,8.0,57,0.00,,OVC055,0.01,VWS V14.01,2013-02-25 19:09:00,
2013-02-25 14:14:00,42.6,28.0,30.11,North,355,6.0,9.0,56,0.00,,OVC055,0.01,VWS V14.01,2013-02-25 19:14:00,
2013-02-25 14:19:00,42.7,28.1,30.11,North,10,6.0,9.0,56,0.00,,OVC055,0.01,VWS V14.01,2013-02-25 19:19:00,
2013-02-25 14:24:00,42.7,28.1,30.10,NE,46,5.0,9.0,56,0.00,,OVC055,0.01,VWS V14.01,2013-02-25 19:24:00,
2013-02-25 14:29:00,42.7,29.4,30.10,NE,53,6.0,9.0,59,0.00,,OVC055,0.01,VWS V14.01,2013-02-25 19:29:00,
2013-02-25 14:30:00,42.8,29.5,30.10,NE,38,6.0,9.0,59,0.00,,OVC055,0.01,VWS V14.01,2013-02-25 19:30:00,
2013-02-25 14:34:00,42.9,28.7,30.10,NE,38,7.0,9.0,57,0.00,,OVC055,0.01,VWS V14.01,2013-02-25 19:34:00,
2013-02-25 14:39:00,43.0,27.5,30.10,NNE,20,2.0,9.0,54,0.00,,OVC055,0.01,VWS V14.01,2013-02-25 19:39:00,
2013-02-25 14:44:00,43.1,27.6,30.10,NNE,25,4.0,9.0,54,0.00,,OVC055,0.01,VWS V14.01,2013-02-25 19:44:00,
2013-02-25 14:49:00,43.3,28.2,30.09,NE,42,3.0,9.0,55,0.00,,OVC055,0.01,VWS V14.01,2013-02-25 19:49:00,
2013-02-25 14:54:00,43.7,29.0,30.09,NNE,30,4.0,9.0,56,0.00,,OVC055,0.01,VWS V14.01,2013-02-25 19:54:00,
2013-02-25 14:59:00,44.1,29.0,30.09,NNE,22,2.0,10.0,55,0.00,,OVC055,0.01,VWS V14.01,2013-02-25 19:59:00,
2013-02-25 15:00:00,44.1,29.0,30.09,NNE,23,4.0,10.0,55,0.00,,OVC055,0.01,VWS V14.01,2013-02-25 20:00:00,
2013-02-25 15:04:00,44.1,29.9,30.09,NNE,30,7.0,7.0,57,0.00,,OVC055,0.01,VWS V14.01,2013-02-25 20:04:00,
2013-02-25 15:09:00,43.9,27.9,30.10,NNE,30,2.0,7.0,53,0.00,,OVC055,0.01,VWS V14.01,2013-02-25 20:09:00,
2013-02-25 15:14:00,44.1,29.9,30.09,North,5,6.0,8.0,57,0.00,,OVC055,0.01,VWS V14.01,2013-02-25 20:14:00,
2013-02-25 15:19:00,44.1,28.1,30.09,North,355,6.0,8.0,53,0.00,,OVC055,0.01,VWS V14.01,2013-02-25 20:19:00,
2013-02-25 15:24:00,44.7,29.5,30.09,NNE,20,5.0,9.0,55,0.00,,OVC055,0.01,VWS V14.01,2013-02-25 20:24:00,
2013-02-25 15:29:00,45.2,28.6,30.09,NNE,32,3.0,9.0,52,0.00,,OVC055,0.01,VWS V14.01,2013-02-25 20:29:00,
2013-02-25 15:30:00,45.2,28.6,30.09,NE,36,6.0,9.0,52,0.00,,OVC055,0.01,VWS V14.01,2013-02-25 20:30:00,
2013-02-25 15:34:00,45.2,29.1,30.09,NE,42,4.0,9.0,53,0.00,,OVC055,0.01,VWS V14.01,2013-02-25 20:34:00,
2013-02-25 15:39:00,45.1,29.0,30.09,NNE,23,6.0,9.0,53,0.00,,OVC055,0.01,VWS V14.01,2013-02-25 20:39:00,
2013-02-25 15:44:00,44.9,27.9,30.09,NNE,23,3.0,9.0,51,0.00,,OVC055,0.01,VWS V14.01,2013-02-25 20:44:00,
2013-02-25 15:49:00,44.7,28.2,30.09,NE,42,6.0,9.0,52,0.00,,OVC055,0.01,VWS V14.01,2013-02-25 20:49:00,
2013-02-25 15:54:00,44.7,29.1,30.09,NNE,25,3.0,9.0,54,0.00,,OVC055,0.01,VWS V14.01,2013-02-25 20:54:00,
2013-02-25 15:59:00,45.0,29.4,30.09,NNE,17,3.0,9.0,54,0.00,,OVC055,0.01,VWS V14.01,2013-02-25 20:59:00,
2013-02-25 16:00:00,45.0,29.4,30.09,NNE,17,2.0,9.0,54,0.00,,OVC055,0.01,VWS V14.01,2013-02-25 21:00:00,
2013-02-25 16:04:00,45.2,29.1,30.09,NNE,33,6.0,7.0,53,0.00,,OVC055,0.01,VWS V14.01,2013-02-25 21:04:00,
2013-02-25 16:09:00,45.4,29.7,30.08,North,11,3.0,7.0,54,0.00,,OVC055,0.01,VWS V14.01,2013-02-25 21:09:00,
2013-02-25 16:14:00,45.8,28.7,30.08,NNE,32,6.0,8.0,51,0.00,,OVC055,0.01,VWS V14.01,2013-02-25 21:14:00,
2013-02-25 16:19:00,45.8,30.1,30.08,NE,52,5.0,8.0,54,0.00,,OVC055,0.01,VWS V14.01,2013-02-25 21:19:00,
2013-02-25 16:24:00,45.9,29.8,30.08,NE,46,8.0,9.0,53,0.00,,OVC055,0.01,VWS V14.01,2013-02-25 21:24:00,
2013-02-25 16:29:00,45.6,29.0,30.08,NNE,22,5.0,9.0,52,0.00,,OVC055,0.01,VWS V14.01,2013-02-25 21:29:00,
2013-02-25 16:30:00,45.6,29.0,30.08,NE,38,7.0,9.0,52,0.00,,OVC055,0.01,VWS V14.01,2013-02-25 21:30:00,
2013-02-25 16:34:00,45.6,29.9,30.08,NE,37,5.0,8.0,54,0.00,,OVC055,0.01,VWS V14.01,2013-02-25 21:34:00,
2013-02-25 16:39:00,45.6,30.4,30.08,NE,35,6.0,8.0,55,0.00,,OVC055,0.01,VWS V14.01,2013-02-25 21:39:00,
2013-02-25 16:43:00,45.5,29.8,30.08,NNE,32,5.0,8.0,54,0.00,,OVC055,0.01,VWS V14.01,2013-02-25 21:43:00,
2013-02-25 16:48:00,45.5,29.8,30.08,NNE,17,4.0,8.0,54,0.00,,OVC055,0.01,VWS V14.01,2013-02-25 21:48:00,
2013-02-25 16:53:00,45.6,29.9,30.08,NNE,15,4.0,8.0,54,0.00,,OVC055,0.01,VWS V14.01,2013-02-25 21:53:00,
2013-02-25 16:58:00,45.6,30.8,30.08,NE,41,7.0,8.0,56,0.00,,OVC055,0.01,VWS V14.01,2013-02-25 21:58:00,
2013-02-25 17:00:00,45.6,30.8,30.08,NE,39,7.0,8.0,56,0.00,,OVC055,0.01,VWS V14.01,2013-02-25 22:00:00,
2013-02-25 17:03:00,45.6,30.4,30.08,NNE,25,3.0,7.0,55,0.00,,OVC055,0.01,VWS V14.01,2013-02-25 22:03:00,
2013-02-25 17:08:00,45.5,29.4,30.08,NE,40,3.0,7.0,53,0.00,,OVC055,0.01,VWS V14.01,2013-02-25 22:08:00,
2013-02-25 17:13:00,45.6,29.9,30.07,NNE,33,5.0,7.0,54,0.00,,OVC055,0.01,VWS V14.01,2013-02-25 22:13:00,
2013-02-25 17:18:00,45.5,30.7,30.08,NNE,31,3.0,7.0,56,0.00,,OVC055,0.01,VWS V14.01,2013-02-25 22:18:00,
2013-02-25 17:23:00,45.5,30.7,30.07,NE,42,3.0,7.0,56,0.00,,OVC055,0.01,VWS V14.01,2013-02-25 22:23:00,
2013-02-25 17:28:00,45.5,30.3,30.07,NNE,32,5.0,7.0,55,0.00,,OVC055,0.01,VWS V14.01,2013-02-25 22:28:00,
2013-02-25 17:30:00,45.4,30.2,30.07,NE,38,2.0,7.0,55,0.00,,OVC055,0.01,VWS V14.01,2013-02-25 22:30:00,
2013-02-25 17:33:00,45.3,30.1,30.06,NNE,32,2.0,4.0,55,0.00,,OVC055,0.01,VWS V14.01,2013-02-25 22:33:00,
2013-02-25 17:38:00,45.3,30.5,30.07,NNE,15,3.0,6.0,56,0.00,,OVC055,0.01,VWS V14.01,2013-02-25 22:38:00,
2013-02-25 17:43:00,45.1,29.9,30.06,NNE,33,5.0,8.0,55,0.00,,OVC055,0.01,VWS V14.01,2013-02-25 22:43:00,
2013-02-25 17:48:00,45.0,30.3,30.07,NE,34,5.0,8.0,56,0.00,,OVC055,0.01,VWS V14.01,2013-02-25 22:48:00,
2013-02-25 17:53:00,44.9,30.2,30.06,NE,46,4.0,8.0,56,0.00,,OVC055,0.01,VWS V14.01,2013-02-25 22:53:00,
2013-02-25 17:58:00,44.8,30.1,30.06,NE,47,5.0,8.0,56,0.00,,OVC055,0.01,VWS V14.01,2013-02-25 22:58:00,
2013-02-25 18:00:00,44.8,30.1,30.06,NNE,14,4.0,8.0,56,0.00,,OVC055,0.01,VWS V14.01,2013-02-25 23:00:00,
2013-02-25 18:03:00,44.7,30.0,30.06,NNE,22,6.0,7.0,56,0.00,,OVC055,0.01,VWS V14.01,2013-02-25 23:03:00,
2013-02-25 18:08:00,44.6,30.3,30.07,NE,38,3.0,8.0,57,0.00,,OVC055,0.01,VWS V14.01,2013-02-25 23:08:00,
2013-02-25 18:13:00,44.4,30.1,30.06,NE,38,4.0,8.0,57,0.00,,OVC055,0.01,VWS V14.01,2013-02-25 23:13:00,
2013-02-25 18:18:00,44.3,30.5,30.07,NE,49,5.0,8.0,58,0.00,,OVC055,0.01,VWS V14.01,2013-02-25 23:18:00,
2013-02-25 18:23:00,44.2,30.4,30.07,NNE,28,4.0,8.0,58,0.00,,OVC055,0.01,VWS V14.01,2013-02-25 23:23:00,
2013-02-25 18:28:00,44.1,30.7,30.07,NE,41,3.0,8.0,59,0.00,,OVC055,0.01,VWS V14.01,2013-02-25 23:28:00,
2013-02-25 18:30:00,44.1,30.7,30.07,NNE,31,4.0,8.0,59,0.00,,OVC055,0.01,VWS V14.01,2013-02-25 23:30:00,
2013-02-25 18:33:00,44.0,30.6,30.08,NE,38,5.0,6.0,59,0.00,,OVC055,0.01,VWS V14.01,2013-02-25 23:33:00,
2013-02-25 18:38:00,43.8,30.8,30.08,NE,44,4.0,7.0,60,0.00,,OVC055,0.01,VWS V14.01,2013-02-25 23:38:00,
2013-02-25 18:43:00,43.6,30.6,30.07,NNE,31,5.0,8.0,60,0.00,,OVC055,0.01,VWS V14.01,2013-02-25 23:43:00,
2013-02-25 18:48:00,43.5,30.5,30.07,NE,51,4.0,8.0,60,0.00,,OVC055,0.01,VWS V14.01,2013-02-25 23:48:00,
2013-02-25 18:53:00,43.3,30.0,30.07,NE,49,4.0,8.0,59,0.00,,OVC055,0.01,VWS V14.01,2013-02-25 23:53:00,
2013-02-25 18:58:00,43.1,30.6,30.08,NE,48,6.0,8.0,61,0.00,,OVC055,0.01,VWS V14.01,2013-02-25 23:58:00,
2013-02-25 19:00:00,43.1,30.6,30.08,NE,38,4.0,8.0,61,0.00,,OVC055,0.01,VWS V14.01,2013-02-26 00:00:00,
2013-02-25 19:03:00,42.9,30.4,30.08,NNE,30,5.0,8.0,61,0.00,,OVC055,0.01,VWS V14.01,2013-02-26 00:03:00,
2013-02-25 19:08:00,42.8,30.7,30.08,NNE,24,5.0,9.0,62,0.00,,OVC055,0.01,VWS V14.01,2013-02-26 00:08:00,
2013-02-25 19:13:00,42.7,31.4,30.08,NNE,33,4.0,9.0,64,0.00,,OVC055,0.01,VWS V14.01,2013-02-26 00:13:00,
2013-02-25 19:18:00,42.5,30.4,30.08,NNE,32,6.0,9.0,62,0.00,,OVC055,0.01,VWS V14.01,2013-02-26 00:18:00,
2013-02-25 19:23:00,42.4,30.7,30.08,NNE,30,5.0,11.0,63,0.00,,OVC055,0.01,VWS V14.01,2013-02-26 00:23:00,
2013-02-25 19:28:00,42.3,30.6,30.08,NE,42,5.0,11.0,63,0.00,,OVC055,0.01,VWS V14.01,2013-02-26 00:28:00,
2013-02-25 19:30:00,42.3,30.2,30.08,NE,49,5.0,11.0,62,0.00,,OVC055,0.01,VWS V14.01,2013-02-26 00:30:00,
2013-02-25 19:33:00,42.1,30.4,30.08,NNE,33,7.0,9.0,63,0.00,,OVC055,0.01,VWS V14.01,2013-02-26 00:33:00,
2013-02-25 19:38:00,41.9,30.2,30.08,NNE,26,4.0,9.0,63,0.00,,OVC055,0.01,VWS V14.01,2013-02-26 00:38:00,
2013-02-25 19:43:00,41.8,30.9,30.08,NNE,25,4.0,9.0,65,0.00,,OVC055,0.01,VWS V14.01,2013-02-26 00:43:00,
2013-02-25 19:48:00,41.7,30.4,30.08,NE,50,1.0,9.0,64,0.00,,OVC055,0.01,VWS V14.01,2013-02-26 00:48:00,
2013-02-25 19:53:00,41.6,30.3,30.08,NNE,30,3.0,9.0,64,0.00,,OVC055,0.01,VWS V14.01,2013-02-26 00:53:00,
2013-02-25 19:58:00,41.5,30.2,30.09,NNE,31,2.0,9.0,64,0.00,,OVC055,0.01,VWS V14.01,2013-02-26 00:58:00,
2013-02-25 20:00:00,41.5,30.6,30.09,NNE,15,5.0,9.0,65,0.00,,OVC055,0.01,VWS V14.01,2013-02-26 01:00:00,
2013-02-25 20:03:00,41.3,30.1,30.09,NNE,26,7.0,7.0,64,0.00,,OVC055,0.01,VWS V14.01,2013-02-26 01:03:00,
2013-02-25 20:08:00,41.2,30.0,30.09,NE,36,4.0,8.0,64,0.00,,OVC055,0.01,VWS V14.01,2013-02-26 01:08:00,
2013-02-25 20:13:00,41.1,30.2,30.09,NNE,25,4.0,8.0,65,0.00,,OVC055,0.01,VWS V14.01,2013-02-26 01:13:00,
2013-02-25 20:18:00,41.0,30.5,30.09,NE,54,4.0,8.0,66,0.00,,OVC055,0.01,VWS V14.01,2013-02-26 01:18:00,
2013-02-25 20:23:00,40.9,30.4,30.09,NNE,28,2.0,8.0,66,0.00,,OVC055,0.01,VWS V14.01,2013-02-26 01:23:00,
2013-02-25 20:28:00,40.9,31.2,30.09,North,5,5.0,8.0,68,0.00,,OVC055,0.01,VWS V14.01,2013-02-26 01:28:00,
2013-02-25 20:30:00,40.9,30.4,30.09,North,5,5.0,8.0,66,0.00,,OVC055,0.01,VWS V14.01,2013-02-26 01:30:00,
2013-02-25 20:33:00,40.8,30.3,30.09,NNE,33,2.0,6.0,66,0.00,,OVC055,0.01,VWS V14.01,2013-02-26 01:33:00,
2013-02-25 20:38:00,40.7,30.6,30.10,NNE,21,3.0,6.0,67,0.00,,OVC055,0.01,VWS V14.01,2013-02-26 01:38:00,
2013-02-25 20:43:00,40.7,30.6,30.10,NNE,31,4.0,6.0,67,0.00,,OVC055,0.01,VWS V14.01,2013-02-26 01:43:00,
2013-02-25 20:48:00,40.6,30.9,30.10,NNE,33,2.0,6.0,68,0.00,,OVC055,0.01,VWS V14.01,2013-02-26 01:48:00,
2013-02-25 20:53:00,40.5,30.0,30.09,NE,37,5.0,6.0,66,0.00,,OVC055,0.01,VWS V14.01,2013-02-26 01:53:00,
2013-02-25 20:58:00,40.5,30.4,30.09,NNE,33,2.0,6.0,67,0.00,,OVC055,0.01,VWS V14.01,2013-02-26 01:58:00,
2013-02-25 21:00:00,40.4,30.7,30.09,NNE,33,3.0,6.0,68,0.00,,OVC055,0.01,VWS V14.01,2013-02-26 02:00:00,
2013-02-25 21:03:00,40.4,30.3,30.10,NE,34,1.0,4.0,67,0.00,,OVC055,0.01,VWS V14.01,2013-02-26 02:03:00,
2013-02-25 21:08:00,40.3,31.3,30.10,NE,40,1.0,4.0,70,0.00,,OVC055,0.01,VWS V14.01,2013-02-26 02:08:00,
2013-02-25 21:13:00,39.9,31.6,30.09,NE,41,0.0,4.0,72,0.00,,OVC055,0.01,VWS V14.01,2013-02-26 02:13:00,
2013-02-25 21:18:00,39.4,31.5,30.10,NNE,29,5.0,9.0,73,0.00,,OVC055,0.01,VWS V14.01,2013-02-26 02:18:00,
2013-02-25 21:23:00,38.9,31.7,30.11,NNE,26,4.0,9.0,75,0.00,,OVC055,0.01,VWS V14.01,2013-02-26 02:23:00,
2013-02-25 21:28:00,38.5,31.9,30.10,NNE,21,7.0,9.0,77,0.00,,OVC055,0.01,VWS V14.01,2013-02-26 02:28:00,
2013-02-25 21:30:00,38.4,32.2,30.10,NE,43,4.0,9.0,78,0.00,,OVC055,0.01,VWS V14.01,2013-02-26 02:30:00,
2013-02-25 21:33:00,38.1,32.5,30.10,NE,34,5.0,8.0,80,0.00,,OVC055,0.01,VWS V14.01,2013-02-26 02:33:00,
2013-02-25 21:38:00,37.5,32.5,30.09,NE,34,9.0,9.0,82,0.00,,OVC055,0.01,VWS V14.01,2013-02-26 02:38:00,
2013-02-25 21:43:00,37.1,32.7,30.10,NE,55,2.0,9.0,84,0.00,,OVC055,0.01,VWS V14.01,2013-02-26 02:43:00,
2013-02-25 21:48:00,36.8,33.3,30.10,ENE,60,0.0,9.0,87,0.00,,OVC055,0.01,VWS V14.01,2013-02-26 02:48:00,
2013-02-25 21:53:00,36.3,32.8,30.10,NNE,17,6.0,9.0,87,0.00,,OVC055,0.01,VWS V14.01,2013-02-26 02:53:00,
2013-02-25 21:58:00,35.8,32.9,30.09,ENE,64,2.0,9.0,89,0.00,,OVC055,0.01,VWS V14.01,2013-02-26 02:58:00,
2013-02-25 22:00:00,35.7,33.1,30.09,ESE,113,2.0,9.0,90,0.00,,OVC055,0.01,VWS V14.01,2013-02-26 03:00:00,
2013-02-25 22:03:00,35.5,33.1,30.09,NE,55,2.0,6.0,91,0.00,,OVC055,0.01,VWS V14.01,2013-02-26 03:03:00,
2013-02-25 22:08:00,35.3,33.2,30.10,NE,40,3.0,6.0,92,0.00,,OVC055,0.01,VWS V14.01,2013-02-26 03:08:00,
2013-02-25 22:13:00,35.2,33.4,30.11,NE,38,5.0,9.0,93,0.00,,OVC055,0.01,VWS V14.01,2013-02-26 03:13:00,
2013-02-25 22:18:00,35.1,33.3,30.10,NNE,31,5.0,9.0,93,0.01,,OVC055,0.02,VWS V14.01,2013-02-26 03:18:00,
2013-02-25 22:23:00,34.8,33.0,30.10,NNE,33,6.0,10.0,93,0.01,,OVC055,0.02,VWS V14.01,2013-02-26 03:23:00,
2013-02-25 22:28:00,34.5,32.7,30.10,NNE,29,6.0,10.0,93,0.01,,OVC055,0.02,VWS V14.01,2013-02-26 03:28:00,
2013-02-25 22:30:00,34.4,32.9,30.09,NE,37,8.0,10.0,94,0.01,,OVC055,0.02,VWS V14.01,2013-02-26 03:30:00,
2013-02-25 22:33:00,34.2,32.7,30.09,NE,40,5.0,10.0,94,0.01,,OVC055,0.02,VWS V14.01,2013-02-26 03:33:00,
2013-02-25 22:38:00,34.1,32.8,30.09,NE,38,6.0,10.0,95,0.01,,OVC055,0.02,VWS V14.01,2013-02-26 03:38:00,
2013-02-25 22:43:00,34.0,32.7,30.10,NE,37,6.0,10.0,95,0.01,,OVC055,0.02,VWS V14.01,2013-02-26 03:43:00,
2013-02-25 22:48:00,33.9,32.6,30.10,NNE,31,7.0,10.0,95,0.01,,OVC055,0.02,VWS V14.01,2013-02-26 03:48:00,
2013-02-25 22:53:00,33.8,32.5,30.10,NE,42,8.0,10.0,95,0.02,,OVC055,0.03,VWS V14.01,2013-02-26 03:53:00,
2013-02-25 22:58:00,33.8,32.8,30.10,NNE,26,4.0,10.0,96,0.02,,OVC055,0.03,VWS V14.01,2013-02-26 03:58:00,
2013-02-25 23:00:00,33.8,32.8,30.10,North,5,4.0,10.0,96,0.02,,OVC055,0.03,VWS V14.01,2013-02-26 04:00:00,
2013-02-25 23:03:00,33.7,32.7,30.10,NE,47,6.0,10.0,96,0.02,,OVC055,0.03,VWS V14.01,2013-02-26 04:03:00,
2013-02-25 23:08:00,33.7,32.7,30.10,NNE,24,5.0,10.0,96,0.02,,OVC055,0.03,VWS V14.01,2013-02-26 04:08:00,
2013-02-25 23:13:00,33.7,32.7,30.09,NNE,22,7.0,10.0,96,0.02,,OVC055,0.03,VWS V14.01,2013-02-26 04:13:00,
2013-02-25 23:18:00,33.7,32.7,30.09,NE,43,5.0,10.0,96,0.03,,OVC055,0.04,VWS V14.01,2013-02-26 04:18:00,
2013-02-25 23:23:00,33.7,32.7,30.09,NNE,12,5.0,10.0,96,0.03,,OVC055,0.04,VWS V14.01,2013-02-26 04:23:00,
2013-02-25 23:28:00,33.6,32.6,30.08,NNE,22,6.0,10.0,96,0.03,,OVC055,0.04,VWS V14.01,2013-02-26 04:28:00,
2013-02-25 23:30:00,33.6,32.6,30.08,NNE,29,4.0,10.0,96,0.03,,OVC055,0.04,VWS V14.01,2013-02-26 04:30:00,
2013-02-25 23:33:00,33.6,32.6,30.08,NE,42,8.0,8.0,96,0.02,,OVC055,0.04,VWS V14.01,2013-02-26 04:33:00,
2013-02-25 23:38:00,33.6,32.6,30.09,NE,38,5.0,9.0,96,0.02,,OVC055,0.04,VWS V14.01,2013-02-26 04:38:00,
2013-02-25 23:43:00,33.6,32.6,30.09,NNE,32,4.0,9.0,96,0.02,,OVC055,0.04,VWS V14.01,2013-02-26 04:43:00,
2013-02-25 23:48:00,33.7,32.9,30.09,NNE,26,6.0,10.0,97,0.02,,OVC055,0.04,VWS V14.01,2013-02-26 04:48:00,
2013-02-25 23:53:00,33.7,32.9,30.08,NE,42,5.0,10.0,97,0.03,,OVC055,0.05,VWS V14.01,2013-02-26 04:53:00,
2013-02-25 23:58:00,33.7,32.9,30.08,NNE,27,4.0,10.0,97,0.03,,OVC055,0.05,VWS V14.01,2013-02-26 04:58:00,